Other Public Products
Issued by NWS Grand Forks, ND

Home | Current Version | Previous Version | Graphics & Text | Print | Product List | Glossary On
Versions: 1 2 3 4 5 6 7 8 9 10 11 12 13 14 15 16 17 18 19 20 21 22 23 24 25 26 27 28 29 30 31 32 33 34 35 36 37 38 39 40 41 42 43 44 45 46 47 48 49 50
000
FPUS83 KFGF 241510
OPUFGF
PRAIRIE TO PINES WEATHER ROUNDUP
NATIONAL WEATHER SERVICE EASTERN NORTH DAKOTA/GRAND FORKS ND
1000 AM CDT FRI OCT 24 2014

 **SATELLITE DATA USED TO AUGMENT SKY COVER AT AUTOMATED STATIONS**
 *****  WEATHER ACROSS EASTERN NORTH DAKOTA  *****

CITY           SKY/WX    TMP DP  RH WIND       PRES   REMARKS
GRAND FORKS    MOSUNNY   55  40  56 W9        29.76R
GRAND FORKS AF MOSUNNY   59  39  47 W9        29.77R
GRAND CITY NWS   N/A     52 N/A N/A W12         N/A
BUXTON         NOT AVBL
DEVILS LAKE    SUNNY     54  37  54 W10       29.77S
FARGO          PTSUNNY   49  42  77 S9        29.81S
WAHPETON ARPT  PTSUNNY   46  41  81 S3        29.84R
$$

 *****  WEATHER ACROSS CENTRAL AND WESTERN NORTH DAKOTA  *****

CITY           SKY/WX    TMP DP  RH WIND       PRES   REMARKS
JAMESTOWN      PTSUNNY   51  38  60 W3        29.82S
BISMARCK       PTSUNNY   48  35  60 CALM      29.88R
MINOT          PTSUNNY   57  37  47 W16       29.81R
MINOT AFB      PTSUNNY   56  40  54 W17       29.80R
GARRISON         N/A     49  42  77 W6        29.85R
WILLISTON      MOSUNNY   47  38  71 CALM      29.90R
DICKINSON      SUNNY     52  36  54 W13       29.91R
HETTINGER      SUNNY     51  34  52 W9        29.95R
$$

 *****  OTHER OBSERVATIONS NORTHEAST NORTH DAKOTA  *****

CITY           SKY/WX    TMP DP  RH WIND       PRES   REMARKS
WALHALLA         N/A     55  39  54 W8        29.72R
LANGDON        FAIR      52  39  62 SW15      29.75R
CAVALIER       FAIR      50  41  71 S5        29.71S
GRAFTON        FAIR      52  41  66 SW10      29.73F
CANDO          FAIR      54  39  58 W13       29.77F
FORT TOTTEN      N/A     55  39  54 SW5       29.95
ROLLA          FAIR      50  37  62 W13       29.76R
RUGBY          FAIR      50  41  71 SW8       29.78S
 ***** THE ABOVE OBSERVATIONS ARE NON NWS ARE NOT QUALITY
        CONTROLLED AND MAY MIS-REPORT RAIN FOR SNOW...
$$

 *****  OTHER OBSERVATIONS SOUTHEAST NORTH DAKOTA *****

CITY           SKY/WX    TMP DP  RH WIND       PRES   REMARKS
COOPERSTOWN    NOT AVBL
VALLEY CITY    FAIR      50  39  66 W13       29.82S
OAKES            N/A     46  43  87 SW6       29.84S
GWINNER        SUNNY     50  45  81 SW14      29.84S
SHEYENNE NWR     N/A     48  44  87 SW6       29.95
BUFFALO        NOT AVBL
WYNDMERE         N/A     52  50  93 SW7         N/A
 ***** THE ABOVE OBSERVATIONS ARE NON NWS ARE NOT QUALITY
       CONTROLLED AND MAY MIS-REPORT RAIN FOR SNOW...
$$

  *****  WEATHER ACROSS NORTHERN MINNESOTA  *****

CITY           SKY/WX    TMP DP  RH WIND       PRES   REMARKS
FLAG ISLAND    PTSUNNY   52  43  71 S5        29.69S
WARROAD        PTSUNNY   52  43  71 SW7       29.73R
ROSEAU         PTSUNNY   52  43  71 S9        29.72S
HALLOCK        PTSUNNY   48  39  71 S9        29.72S
THF RVR FALLS  PTSUNNY   52  41  66 SW10      29.77S
HALSTAD        NOT AVBL
FOSSTON        MOSUNNY   52  43  71 S14       29.80R
BAUDETTE       PTSUNNY   54  41  61 SW8       29.72F
WASKISH        MOSUNNY   57  43  58 CALM      29.76S
CROOKSTON      MOSUNNY   48  43  81 SW9       29.79R
$$
  *****  WEATHER ACROSS CENTRAL AND WEST MINNESOTA  *****

CITY           SKY/WX    TMP DP  RH WIND       PRES   REMARKS
BEMIDJI        MOSUNNY   54  43  65 SW9       29.79S
PARK RAPIDS    SUNNY     51  45  79 S8        29.81F
WADENA         MOSUNNY   48  45  87 S5        29.82S
DETROIT LAKES  MOSUNNY   54  45  71 W3        29.83R
MOORHEAD       PTSUNNY   46  46 100 S5        29.82S
FERGUS FALLS   PTSUNNY   48  45  87 S7        29.85R
ELBOW LAKE     FAIR      49  46  89 S7        29.84S
MORRIS MN      PTSUNNY   48  45  87 CALM      29.84R
STAPLES        MOSUNNY   50  43  76 S7        29.83S
WHEATON        PTSUNNY   46  45  93 CALM      29.86S
$$
  *****  WEATHER ELSEWHERE ACROSS MINNESOTA  *****

CITY           SKY/WX    TMP DP  RH WIND       PRES   REMARKS
DULUTH         MOSUNNY   53  46  77 S12       29.85F
INTRNTL FALLS  CLOUDY    57  43  59 SW10      29.74S
ELY            CLOUDY    54  45  71 SW10G16   29.81F
CLOQUET        MOSUNNY   52  46  82 S5        29.85F
BRAINERD       SUNNY     52  42  69 S8        29.85R
HIBBING        PTSUNNY   51  46  83 VRB6      29.82F
ALEXANDRIA     PTSUNNY   51  46  83 SW6       29.85S
SAINT CLOUD    PTSUNNY   55  46  71 S6        29.85F
MINNEAPOLIS    PTSUNNY   53  47  79 SE8       29.89S
$$

  *****  WEATHER ACROSS SOUTH DAKOTA  *****

CITY           SKY/WX    TMP DP  RH WIND       PRES   REMARKS
SIOUX FALLS    CLOUDY    53  49  86 W3        29.89R
BROOKINGS      NOT AVBL
WATERTOWN      CLOUDY    47  46  97 CALM      29.88R
HURON          CLOUDY    47  41  80 CALM      29.90R
SISSETON         N/A     50  47  89 CALM      29.83S
ABERDEEN       CLOUDY    46  41  82 SW3       29.87R
MITCHELL       CLOUDY    49  43  80 W3        29.91R
PIERRE         PTSUNNY   47  36  65 SW5       29.91R
MOBRIDGE       PTSUNNY   48  41  76 CALM      29.88R
RAPID CITY     CLOUDY    59  33  37 NW13      29.98R
$$

  *****  SOME WEATHER IN NEARBY STATES *****

CITY           SKY/WX    TMP DP  RH WIND       PRES   REMARKS
GLASGOW MT     MOSUNNY   50  37  61 W12       29.94R
GREAT FALLS MT CLOUDY    47  35  63 S8        30.03R
CHEYENNE WY    CLOUDY    58  28  32 W8        30.22R
SCOTTSBLUFF NE CLOUDY    55  38  52 NW8       30.08R
OMAHA NE       CLOUDY    62  58  86 S8        29.94R FOG
DES MOINES IA  CLOUDY    61  59  93 S13       29.97S FOG
DAVENPORT IA   FOG       54  52  93 S9        30.06F VSB 1/4
CHICAGO IL     MOSUNNY   55  47  74 VRB3      30.06S
EAU CLAIRE WI  CLOUDY    50  48  93 SE9       29.96F
LA CROSSE WI   CLOUDY    52  51  97 SE9       29.99S FOG
$$

  *****  SOME NATIONAL WEATHER *****

CITY           SKY/WX    TMP DP  RH WIND       PRES   REMARKS
LA GUARDIA NY  PTSUNNY   56  43  61 NW13      29.81F
RALEIGH NC     PTSUNNY   60  43  53 NE6       30.07S
ATLANTA GA     MOSUNNY   61  48  62 VRB5      30.08S
NEW ORLEANS LA MOSUNNY   67  54  63 N7        30.12S
OKLAHOMA CITY  MOSUNNY   64  57  78 S12       30.12R
ALBUQUERQUE NM MOSUNNY   51  36  56 NW3       30.35R
SALT LAKE CITY MOSUNNY   49  42  77 S3        30.17R
LOS ANGELES CA PTCLDY    63  53  70 CALM      29.98R
BOISE ID       CLOUDY    51  49  92 N3        30.10R
SEATTLE WA     CLOUDY    48  43  82 CALM      30.05R
$$

*** WEATHER ACROSS MANITOBA...SASKATCHEWAN AND ONTARIO ***
                ***ONTARIO***

CITY           SKY/WX    TMP DP  RH WIND       PRES   REMARKS
GERALDTON      FOG       45  45 100 SW6       29.81  VSB 1
THUNDER BAY    CLOUDY    50  48  93 S6        29.84F
SIOUX LOOKOUT  MOSUNNY   52  45  76 S7        29.71F
TORONTO        MOSUNNY   48  41  76 NW10      30.04F
BIG TROUT LK   PTSUNNY   48  45  87 S7        29.60F
PICKLE LAKE    PTSUNNY   48  43  81 S6        29.67F
DRYDEN         PTSUNNY   52  43  71 S12       29.70F
KENORA         PTSUNNY   50  43  76 SW12      29.69S
$$
                *** MANITOBA***

CITY           SKY/WX    TMP DP  RH WIND       PRES   REMARKS
BRANDON        PTSUNNY   48  43  81 SW10      29.68S
DAUPHIN        MOSUNNY   59  43  55 W13G21    29.58F
ISLAND LAKE    PTSUNNY   46  46 100 S7        29.52F
PILOT MOUND      N/A     54  41  62 SW8         N/A
THE PAS        LGT RAIN  45  43  93 NW10      29.44S
THOMPSON       LGT RAIN  39  39 100 SE2       29.45F VSB 5/8
WINNIPEG       PTSUNNY   52  39  62 SW13      29.66F
LYNN LAKE      LGT RAIN  37  36  93 S6        29.40F FOG
CHURCHILL      LGT RAIN  37  37 100 E20G25    29.53F FOG
GILLAM         CLOUDY    39  39 100 SW5       29.51F
$$
                ***SASKATCHEWAN***

CITY           SKY/WX    TMP DP  RH WIND       PRES   REMARKS
ESTEVAN        MOSUNNY   54  39  58 W17G24    29.80R
KINDERSLEY     PTCLDY    36  30  80 W13       29.80R
LLOYDMINSTER   NOT AVBL
PRINCE ALBERT  PTCLDY    41  34  75 W15G22    29.60R
REGINA         PTSUNNY   50  36  57 W22G30    29.73R



USA.gov is the U.S. government's official web portal to all federal, state and local government web resources and services.